Wind_Speed
48 48 48 47 45 44 43 41 39 37 35 33 31 29 28 27 25 23 23 23 22 22 21 20 19 18 17 16 15 15 16 16 16 17 17 16 15 14 13 13 14 15 14 12 12 11 11 11 12 11 11 11 11 11 11 10 10 9 10 10 12 14 17 18 17 16 16 16 15 14 12 11 10 11 11 12 14 15 16 15 16 17 16 15 14
49 49 49 47 46 45 43 41 39 37 35 33 31 29 28 27 25 23 22 23 22 22 22 20 19 18 17 16 16 15 16 16 17 17 16 14 14 13 12 13 15 15 14 12 11 11 11 12 12 12 11 12 11 11 10 9 9 8 9 9 9 11 14 16 16 16 16 14 13 11 10 10 10 10 11 13 14 14 13 13 13 14 15 14 13
49 50 49 48 46 45 44 42 40 37 35 33 31 30 28 26 24 23 21 21 22 23 22 21 20 19 18 17 16 15 15 16 16 16 15 14 13 12 13 14 15 14 13 11 11 11 11 12 12 12 11 11 11 10 9 9 8 8 7 8 8 9 10 12 13 13 13 12 10 9 9 9 10 11 12 12 12 11 11 11 11 12 13 14 13
49 50 49 47 46 46 45 43 41 38 35 33 32 30 28 26 24 22 21 21 23 23 22 21 21 20 19 17 16 16 15 15 15 15 15 14 13 13 14 15 15 14 12 11 10 11 11 12 12 12 11 11 10 10 9 8 8 7 7 6 7 8 8 9 9 8 8 8 7 8 8 9 10 10 11 10 9 10 11 11 10 10 12 13 12
50 49 49 47 47 46 45 44 41 38 35 33 32 30 28 26 24 21 21 22 23 22 21 21 21 20 19 17 16 16 15 15 15 15 14 14 14 15 15 14 14 13 11 11 11 11 11 11 11 11 11 10 10 9 9 8 7 6 6 6 6 7 7 7 7 6 6 6 6 7 8 8 9 10 10 9 8 8 9 9 10 10 11 11 11
50 49 48 48 47 47 46 44 42 38 35 34 32 30 29 27 24 22 22 23 23 22 21 21 21 20 19 17 16 16 16 16 15 15 14 14 15 15 15 14 14 12 11 11 11 12 11 11 11 11 10 10 9 9 9 8 7 7 6 6 6 7 7 7 7 6 6 6 7 8 7 7 9 10 12 12 10 8 7 7 8 8 9 10 10
50 49 48 48 48 47 46 44 41 37 35 33 31 31 30 27 24 22 22 24 24 22 21 21 21 20 18 17 16 16 16 16 15 15 15 15 15 15 14 14 13 12 12 12 12 13 12 12 11 10 10 10 10 10 9 8 8 8 6 6 6 7 7 7 7 6 7 7 8 8 8 8 10 12 13 12 10 10 9 8 6 5 7 10 11
50 49 48 48 48 47 45 43 40 36 33 32 31 30 29 26 23 23 24 26 24 21 20 21 20 19 18 17 16 16 16 16 16 15 16 15 15 14 14 13 13 13 13 13 14 13 13 12 12 11 11 11 11 11 9 7 8 8 7 8 9 10 9 9 8 8 8 9 9 10 9 9 9 11 11 9 9 10 11 10 7 7 8 10 12
50 49 49 49 48 46 44 42 39 35 32 31 30 29 27 24 23 24 25 25 22 21 21 21 20 19 18 17 17 17 16 16 16 16 15 15 14 14 14 13 13 13 14 14 14 14 14 13 13 13 13 13 12 11 8 7 9 11 11 12 12 11 10 10 10 10 10 10 10 10 10 9 9 9 9 8 9 10 11 10 8 9 10 10 11
49 49 49 49 47 45 43 41 38 34 31 30 29 28 25 24 24 24 24 22 21 22 22 21 20 18 18 17 17 17 17 16 16 15 14 14 13 14 14 14 14 14 14 15 15 15 15 15 15 15 14 13 12 10 8 9 12 13 12 11 11 11 11 11 11 11 10 10 10 10 9 8 8 9 8 8 8 8 10 10 9 10 11 10 9
49 49 48 48 46 43 41 40 37 34 31 29 29 27 26 26 27 25 24 22 23 23 22 21 20 18 18 18 17 17 16 15 15 15 14 14 14 14 14 13 14 14 14 15 15 15 15 16 16 15 13 13 12 10 11 13 13 11 10 10 11 12 11 11 11 11 10 10 10 9 9 8 8 10 9 7 7 7 9 9 9 11 12 12 12
49 49 48 47 45 41 39 38 37 34 32 29 28 28 28 28 28 26 24 22 23 23 21 20 19 18 18 18 17 17 16 15 15 15 14 14 14 14 14 14 14 14 14 15 15 15 16 16 15 14 13 12 12 12 13 13 12 12 11 12 13 12 11 10 10 10 10 10 10 9 9 8 9 10 9 7 6 7 8 8 9 11 12 12 13
48 48 47 46 44 40 38 37 37 36 32 28 28 30 29 28 29 27 25 23 22 22 20 18 18 18 19 19 18 16 15 14 14 14 14 14 14 14 14 14 14 14 14 15 15 15 15 15 14 14 13 12 12 13 14 14 13 13 12 13 14 13 12 11 11 11 10 10 10 9 8 8 9 10 9 7 6 6 8 8 8 10 11 11 12
48 47 46 45 43 40 38 37 38 37 32 27 28 29 28 29 29 28 25 23 22 23 21 18 18 19 20 20 18 15 14 13 14 14 14 14 14 14 14 14 14 14 13 13 14 14 14 14 14 13 11 11 13 14 15 14 14 14 13 14 14 13 12 12 11 11 10 10 10 10 8 8 9 9 8 7 6 7 8 7 8 10 10 10 11
48 47 46 45 42 40 39 38 39 38 32 28 28 27 27 29 28 26 25 24 23 23 21 18 17 18 18 17 16 15 13 13 14 14 14 14 14 15 15 15 14 14 13 13 13 13 14 13 13 11 10 11 13 14 15 15 15 15 14 14 14 13 12 11 11 10 10 10 10 10 9 9 9 9 9 8 7 7 8 8 8 10 11 10 10
46 46 46 44 42 41 39 40 41 38 33 31 30 27 27 28 27 25 24 24 24 25 22 19 18 17 15 15 15 14 12 12 14 15 15 15 15 15 15 15 14 14 14 14 14 13 13 12 11 11 11 12 13 15 15 16 16 15 14 14 13 13 12 12 11 11 10 10 10 10 10 10 10 9 9 8 7 8 8 8 9 10 12 12 11
45 45 45 44 43 42 41 42 41 36 33 33 31 28 27 27 27 26 25 24 26 25 22 20 19 17 15 15 15 13 11 12 14 15 16 16 16 15 14 14 14 14 14 14 13 12 11 10 10 10 11 12 14 15 15 17 17 15 15 14 13 14 13 12 12 11 10 10 10 10 10 10 10 10 9 9 8 8 9 8 9 10 11 12 12
45 45 45 45 43 42 42 42 39 36 35 34 31 29 27 26 26 26 25 26 26 23 19 20 21 19 15 16 16 12 10 10 13 14 15 15 15 14 13 13 14 14 14 14 12 11 10 10 10 11 11 12 14 15 15 17 17 16 15 14 15 15 14 13 12 12 11 11 10 10 10 10 10 10 10 10 10 10 10 9 9 10 11 11 11
46 46 46 45 43 42 42 40 37 35 34 32 30 29 27 26 27 25 24 24 23 21 20 21 23 20 16 16 17 13 10 11 12 13 14 14 14 13 13 13 13 13 14 13 12 11 10 10 11 11 11 12 14 15 16 17 18 16 14 15 16 15 12 12 13 12 11 12 11 10 10 9 10 10 10 11 11 11 10 10 9 10 10 10 10
47 46 45 44 43 42 41 38 36 34 32 30 30 28 25 26 27 27 28 26 22 21 22 23 24 21 16 17 18 15 12 13 12 12 13 13 13 13 13 13 12 11 12 12 11 11 10 10 11 11 11 12 14 15 16 17 17 15 15 16 16 13 10 11 13 12 11 11 11 11 10 9 9 10 10 11 12 12 11 10 10 9 10 10 9
44 43 44 43 42 41 39 36 34 32 29 27 27 26 26 27 26 28 30 27 21 21 23 23 23 20 16 18 20 17 16 16 14 13 13 12 13 15 15 13 11 10 11 12 11 11 9 9 10 10 10 10 12 14 16 17 16 14 14 15 15 12 10 11 11 11 11 11 12 12 11 10 11 11 12 12 12 12 11 10 10 10 10 9 10
42 42 43 42 41 40 37 35 32 29 28 26 24 26 29 30 29 29 27 23 20 22 24 24 23 18 17 20 22 22 21 18 16 15 15 14 15 16 14 11 10 11 12 13 12 11 9 8 8 9 10 10 11 13 16 16 15 13 11 12 13 13 13 12 11 10 10 11 12 13 12 12 13 13 14 13 13 12 11 10 11 11 10 9 10
40 41 41 41 40 38 36 33 30 28 29 29 26 26 29 31 31 30 27 23 22 22 23 25 23 20 20 23 25 25 24 21 18 17 17 16 16 15 12 11 11 12 13 13 11 10 9 8 8 9 10 10 10 12 15 15 13 11 11 12 13 14 15 14 12 11 11 11 13 14 13 13 14 14 15 14 13 12 10 10 11 12 11 10 9
38 40 40 40 38 36 33 31 29 30 32 32 30 29 29 30 30 30 28 25 22 22 25 27 25 22 23 25 26 26 25 23 20 19 18 17 17 15 14 13 13 14 14 13 11 11 10 10 9 9 11 12 11 12 15 15 13 12 12 13 13 14 15 14 13 13 13 13 14 14 13 13 14 15 15 14 13 12 10 10 11 12 12 11 10
37 38 39 38 35 33 32 31 30 32 34 35 33 32 30 30 30 29 26 24 22 23 28 29 25 22 24 26 26 27 26 25 22 20 19 18 17 16 15 15 15 15 15 13 12 12 13 12 11 11 12 14 14 14 15 15 13 13 13 14 14 15 15 14 13 14 15 15 14 14 14 13 14 16 16 15 14 12 12 12 13 13 13 13 11
39 38 37 35 32 31 32 33 35 37 38 37 35 32 29 29 30 27 23 23 23 24 28 29 26 23 23 25 25 25 26 26 23 20 19 19 18 17 17 17 17 16 17 16 14 14 15 15 14 14 14 16 17 16 15 15 14 13 14 14 15 16 16 15 14 14 15 15 15 15 14 14 15 17 18 17 15 13 13 14 14 14 14 14 13
39 37 34 31 30 31 33 37 41 41 39 37 35 32 29 29 30 27 22 24 25 24 26 29 27 22 21 22 23 22 23 23 22 20 20 20 20 19 19 18 18 18 18 17 16 16 17 18 17 16 16 17 19 18 16 16 15 15 16 16 17 16 16 16 15 15 14 14 14 14 14 15 16 16 17 17 16 14 14 14 14 14 13 13 12
34 33 31 30 31 31 32 36 39 38 35 35 34 32 30 31 30 25 20 21 22 21 23 26 25 21 19 20 20 18 18 18 18 19 21 20 20 19 19 19 19 18 18 17 17 18 19 19 19 19 18 19 20 19 18 17 17 17 18 19 19 18 17 17 17 16 15 13 13 14 14 15 16 16 17 17 16 14 14 14 14 13 12 12 12
30 30 31 31 35 36 33 32 34 34 34 34 33 31 30 29 28 22 17 15 15 15 18 22 21 20 18 16 14 13 12 12 12 14 17 18 17 17 16 16 16 15 15 15 17 19 21 21 21 20 19 19 20 20 20 19 19 19 19 19 20 20 18 18 18 18 16 15 14 14 14 14 15 16 17 17 15 14 14 14 14 14 13 13 14
28 31 32 32 36 39 36 32 32 34 33 33 34 33 31 29 27 23 18 15 13 12 14 17 18 17 16 13 11 10 10 8 6 7 10 12 13 13 13 12 12 13 14 16 18 20 21 21 20 19 19 19 19 20 20 20 20 20 19 19 20 20 20 19 19 18 18 18 16 15 14 15 15 15 16 17 16 15 15 15 15 15 14 15 16
32 35 36 34 36 39 36 33 33 33 33 33 33 32 30 29 28 25 20 16 14 12 12 13 14 14 13 12 11 10 9 7 9 10 10 11 12 13 12 12 13 15 17 19 21 22 22 21 21 20 19 19 19 19 19 19 20 20 19 20 20 20 20 19 18 18 19 18 17 16 15 16 16 15 16 17 16 16 15 15 15 15 16 16 17
36 38 38 39 40 40 36 32 30 32 34 35 32 29 28 29 29 28 23 18 16 13 11 11 12 12 12 11 10 9 9 10 12 14 13 13 14 14 14 15 15 16 18 20 23 24 23 22 21 20 19 19 19 18 18 19 19 20 21 22 22 22 20 18 17 18 19 18 17 17 16 16 16 16 16 16 16 16 15 15 15 16 17 17 17
38 38 40 42 43 40 35 31 32 34 33 32 29 28 28 27 28 29 25 20 18 16 14 14 14 13 13 12 10 10 11 12 14 15 15 15 15 16 16 17 19 19 20 22 24 24 24 23 22 21 20 20 19 19 19 19 19 20 21 23 24 24 22 20 18 18 18 17 17 16 16 16 16 17 17 17 16 16 15 15 14 15 16 16 16
37 35 37 41 43 40 34 32 33 33 29 26 27 27 26 25 25 25 22 19 18 18 17 17 17 17 16 14 13 13 14 14 14 15 16 16 17 18 18 19 20 21 22 23 23 23 23 21 20 19 18 18 18 18 19 20 20 20 20 21 21 22 22 22 21 18 17 17 17 16 15 16 16 17 17 17 16 16 15 14 14 14 15 14 13
36 32 34 38 40 37 32 28 26 26 24 23 24 23 21 20 19 18 16 15 16 16 17 18 19 19 18 17 16 16 16 16 15 15 16 16 17 18 19 20 20 21 21 21 21 20 19 18 16 15 15 15 15 16 17 19 20 20 20 20 20 20 20 22 22 20 19 19 19 18 18 18 18 18 18 17 17 16 15 14 13 13 12 10 9
31 30 31 32 32 29 26 24 23 22 22 21 20 19 18 18 17 16 15 14 13 13 15 17 18 18 17 16 16 17 17 17 17 17 17 17 16 17 18 19 19 19 19 18 17 16 14 13 12 12 12 11 12 13 13 15 16 17 18 19 19 18 19 19 20 20 21 21 22 22 22 21 19 17 17 17 17 16 15 14 12 10 9 8 8
25 25 25 26 28 28 28 27 25 23 22 21 20 20 19 18 16 15 14 13 12 13 14 15 15 16 17 17 17 17 18 18 18 18 18 17 17 18 18 18 18 18 18 16 14 12 11 10 10 10 10 9 10 10 11 12 13 15 16 16 17 17 17 17 18 20 22 23 23 23 23 21 19 16 16 17 16 16 15 13 11 10 9 9 10
21 23 25 26 28 29 28 27 25 23 22 21 19 18 17 15 14 13 12 11 12 12 13 14 14 14 16 17 17 18 18 18 18 18 18 18 18 18 17 17 17 17 16 14 12 10 9 9 9 9 9 9 9 10 11 12 13 14 15 16 16 16 17 17 18 19 21 22 23 23 22 20 18 17 17 17 16 16 15 13 12 11 10 11 13
22 24 25 24 25 25 24 24 23 22 21 19 18 16 15 14 13 13 13 13 13 12 13 13 13 13 14 15 16 16 16 16 16 16 17 17 16 16 16 16 16 16 14 12 10 8 8 8 8 8 8 8 8 9 10 11 12 13 14 15 16 16 15 16 16 17 18 19 20 20 19 18 17 18 18 18 17 17 16 15 13 11 11 13 15
23 23 22 21 20 20 19 19 19 19 18 18 17 16 15 14 15 15 15 15 15 14 14 13 12 13 13 14 14 15 14 13 13 14 15 15 14 14 15 15 15 15 13 11 9 9 9 9 9 9 8 8 8 9 10 11 12 13 13 14 14 14 13 13 14 14 15 17 17 17 17 17 17 18 19 18 17 16 17 16 14 13 13 15 17
20 20 19 17 17 17 17 16 16 16 16 16 16 16 16 16 17 17 16 16 15 14 13 13 13 13 13 13 12 12 13 13 13 13 13 13 13 13 13 14 15 14 13 11 11 11 11 11 11 11 10 10 10 10 11 12 12 13 13 13 12 12 12 13 13 13 14 16 16 17 17 17 18 19 19 18 16 16 16 15 14 14 15 17 19
18 19 18 18 17 17 17 17 16 17 17 17 17 17 17 17 17 17 16 15 15 14 14 14 13 13 12 12 12 13 13 15 15 15 15 15 14 13 13 14 15 14 14 14 13 13 14 14 14 14 14 13 13 12 12 12 12 12 12 12 12 12 12 12 12 12 13 14 15 15 16 16 17 17 17 16 15 15 14 14 14 15 17 19 20
16 17 18 19 18 17 18 18 18 18 18 17 17 16 16 17 17 17 16 16 15 15 15 15 14 13 13 13 13 13 13 14 16 16 16 16 15 15 15 15 15 15 15 15 14 15 15 16 16 17 17 17 16 15 14 13 13 12 12 12 12 12 12 11 11 12 11 11 11 13 14 15 15 15 14 14 14 13 13 13 15 17 19 20 19
17 18 19 20 20 20 20 19 19 19 19 18 17 16 16 15 16 17 17 17 16 15 15 14 14 14 14 14 13 13 12 13 13 13 13 13 14 13 13 13 13 14 14 14 14 14 15 16 16 17 18 18 18 17 16 15 15 14 14 13 13 13 12 12 11 10 10 10 10 11 12 13 13 13 13 12 11 11 12 14 16 18 18 18 17
17 18 20 21 21 21 21 20 20 20 20 19 18 18 16 15 15 15 15 15 15 15 16 16 16 15 15 14 14 13 13 13 13 12 12 12 12 12 12 12 13 13 13 13 13 14 14 14 14 15 16 16 17 17 17 17 17 16 16 16 15 14 13 12 12 12 12 11 10 10 11 12 13 14 13 11 11 12 13 14 15 17 18 18 18
17 19 20 21 21 21 21 21 20 20 19 18 18 17 16 15 13 13 12 12 11 12 12 12 12 12 12 12 12 12 12 13 13 13 13 13 12 12 12 13 14 13 13 13 13 13 13 12 13 12 12 13 15 16 17 17 18 18 18 18 17 16 15 14 14 14 14 13 12 12 13 14 14 14 13 12 13 14 14 15 16 17 17 18 19
18 19 19 19 19 20 20 19 19 18 17 16 15 14 14 14 13 13 12 12 11 10 9 9 8 8 9 9 9 8 8 9 9 11 13 13 13 13 13 14 14 14 14 14 13 13 13 12 12 11 11 11 13 14 15 16 17 17 18 18 18 18 17 17 17 17 17 16 15 14 15 15 15 15 14 14 15 16 16 16 17 17 18 19 20
17 18 17 17 17 16 16 15 15 14 14 14 14 13 14 14 14 13 13 13 12 11 10 8 8 8 9 10 10 9 9 10 10 10 12 13 14 14 14 14 13 12 13 13 13 13 13 13 13 12 11 11 11 11 12 13 14 15 16 17 18 19 19 19 19 19 19 18 17 16 16 16 16 16 16 17 18 18 18 19 19 18 18 18 19
17 17 17 17 16 15 15 15 15 14 13 12 12 12 12 12 13 13 13 13 13 12 10 9 8 8 9 11 12 13 13 13 13 13 12 12 13 14 14 14 14 14 14 13 13 14 14 14 13 12 11 11 11 11 11 11 12 12 13 14 15 17 19 20 21 20 20 19 19 18 18 18 18 18 19 19 20 20 20 20 19 18 19 20 20
18 18 18 18 18 18 18 18 16 15 14 12 10 9 9 10 12 13 13 13 13 12 11 10 9 8 7 8 10 12 13 14 15 15 14 14 14 14 13 13 13 13 13 13 13 14 14 14 14 13 12 11 11 11 11 11 12 12 12 12 12 13 15 17 19 20 20 20 20 20 19 19 19 20 20 20 20 20 20 20 19 20 20 21 21
17 17 18 20 20 19 18 16 14 12 11 10 9 7 6 7 10 12 13 13 13 13 12 11 10 8 6 4 5 6 8 10 12 12 13 13 12 11 11 10 11 11 12 12 12 12 13 14 14 13 13 13 12 12 12 12 12 12 12 12 11 10 11 12 14 16 17 18 18 18 18 18 18 18 19 19 19 20 20 20 20 20 20 20 21
Wind_Direction
220 222 223 223 222 222 222 223 224 225 226 227 227 227 226 226 227 230 235 237 237 236 237 238 240 243 245 249 253 248 244 246 248 252 255 250 243 242 243 245 248 247 242 237 237 239 240 241 241 241 241 240 241 243 245 248 249 250 248 244 241 240 239 239 239 236 232 235 242 251 262 273 285 297 308 313 315 319 322 326 329 331 337 341 340
219 222 222 222 222 221 222 223 223 224 224 226 225 224 225 225 225 227 232 238 239 235 235 237 241 244 247 252 252 245 243 248 250 251 252 247 243 244 246 248 248 245 240 236 237 238 239 242 242 241 240 241 242 242 246 250 251 251 251 248 244 242 242 241 239 238 237 239 243 252 264 276 287 296 304 311 314 317 320 322 325 330 335 339 340
219 221 221 221 221 221 222 223 223 223 224 224 224 223 223 224 224 226 230 236 238 233 232 237 241 245 249 253 249 240 241 248 249 248 247 244 244 247 248 249 248 245 240 237 239 240 240 243 245 243 242 242 244 245 248 250 251 252 252 249 243 238 237 239 240 242 242 241 243 254 268 278 286 297 305 311 315 317 318 318 323 331 334 336 338
217 219 220 220 220 220 221 222 223 223 223 224 223 222 222 223 223 224 228 235 237 231 230 236 241 245 251 251 243 236 240 247 246 242 239 238 240 242 244 245 245 242 238 235 237 241 243 245 247 246 243 243 246 249 253 255 255 254 252 251 243 232 228 230 233 237 240 242 247 257 268 278 288 298 305 310 313 315 314 312 315 325 331 335 336
215 217 219 219 219 220 221 222 222 222 223 223 222 220 221 221 220 221 225 233 236 232 232 237 240 245 251 248 238 235 241 247 245 239 233 233 234 236 237 238 239 236 233 233 235 238 242 245 246 246 244 245 249 252 256 260 261 259 259 258 243 227 222 221 220 223 232 242 252 259 267 277 288 298 302 304 306 307 308 308 309 316 324 333 339
214 215 216 217 218 219 220 221 222 221 222 222 221 219 220 219 218 219 223 231 234 231 234 239 242 246 249 244 237 236 241 245 244 236 230 230 232 233 234 235 234 230 228 231 233 234 236 238 240 241 241 244 248 252 257 260 263 267 267 257 235 221 218 217 219 225 233 245 256 262 269 282 296 302 301 303 306 305 305 306 303 308 317 328 341
211 212 214 216 217 218 220 222 222 221 221 221 220 219 219 219 217 217 224 231 232 231 235 239 241 245 244 239 236 238 241 245 242 233 227 228 231 232 235 236 233 229 225 227 231 232 232 233 235 236 238 240 243 247 251 258 264 266 263 251 235 227 226 225 231 239 241 249 255 258 267 285 297 296 293 300 307 309 315 317 305 310 330 334 343
209 210 212 214 216 218 220 221 222 221 220 219 219 220 220 218 215 216 224 230 229 230 236 238 240 242 238 232 232 236 241 244 239 230 226 228 230 232 233 234 233 230 225 226 229 230 229 230 231 231 233 235 237 241 244 255 260 257 261 260 243 234 235 235 237 241 241 246 250 253 264 281 287 284 285 295 302 305 318 328 323 327 347 350 349
208 209 211 213 215 217 218 219 220 221 220 218 218 219 218 215 214 219 225 228 227 229 234 236 238 239 232 226 227 232 238 241 237 230 228 229 231 234 234 233 232 230 228 227 229 230 230 230 229 229 229 231 235 239 243 260 267 263 266 262 244 235 239 239 239 242 242 245 249 252 263 276 276 273 279 290 298 308 324 336 340 342 351 358 355
206 207 209 213 214 215 215 217 218 219 219 219 219 218 215 215 217 218 221 227 229 229 230 233 236 233 226 223 226 231 237 241 237 231 229 230 232 234 234 232 231 230 229 230 231 232 230 228 228 227 228 234 237 236 245 266 270 263 257 251 244 246 247 242 239 240 243 250 254 257 266 272 270 271 279 288 299 319 332 340 350 351 350 354 358
206 207 209 211 213 213 214 216 217 217 219 221 220 217 216 217 218 218 221 226 226 225 229 233 232 227 222 221 225 231 237 242 238 232 229 230 232 232 232 232 233 232 231 231 232 232 230 229 230 231 238 245 240 238 257 271 264 248 238 239 244 248 250 251 250 246 247 254 258 263 270 267 264 272 281 288 298 323 338 346 356 357 354 354 356
206 207 209 210 212 213 214 216 216 215 218 222 219 215 216 217 218 222 224 223 219 221 230 233 226 222 224 223 225 230 235 239 238 233 231 231 232 232 232 232 233 233 233 232 231 231 231 233 237 241 248 248 241 248 266 267 247 231 231 238 240 238 242 250 254 252 255 259 262 267 268 263 264 273 281 286 296 322 341 350 358 0 358 355 352
206 206 207 209 211 212 213 214 213 211 217 221 215 213 217 218 219 221 221 218 216 220 229 229 219 220 226 225 225 230 235 236 235 232 232 231 232 233 232 232 233 233 234 233 232 233 235 239 245 248 247 244 246 257 262 249 233 229 232 238 241 240 240 241 243 248 254 258 264 270 270 267 269 273 281 288 296 322 341 348 357 1 357 353 348
204 205 206 208 210 212 212 212 211 210 216 221 215 213 218 218 218 220 217 214 214 218 225 226 218 219 225 226 226 231 236 236 232 229 228 229 231 232 232 232 232 233 234 235 236 239 242 248 252 250 246 249 255 256 249 236 231 235 238 240 242 243 243 244 246 250 254 258 266 273 274 270 267 270 282 293 298 317 335 342 352 357 354 349 345
203 204 206 207 209 212 212 211 211 210 215 221 217 217 218 216 217 218 212 211 216 217 220 224 222 223 226 224 223 229 235 233 229 227 225 225 228 229 230 231 231 231 232 233 234 240 247 253 253 247 246 254 255 249 240 233 233 237 241 243 244 245 247 250 254 258 260 261 263 265 265 262 261 268 281 292 295 309 326 334 341 349 350 346 341
202 203 204 206 209 211 211 210 210 210 215 218 217 219 218 213 213 212 206 211 219 217 217 223 225 225 227 224 223 227 230 229 226 224 223 223 224 226 228 231 232 231 231 232 233 238 247 252 250 248 253 257 250 241 235 233 233 236 240 243 247 250 252 256 260 263 262 258 254 256 259 258 260 266 275 284 288 297 312 323 331 342 345 341 337
202 203 204 207 209 210 210 209 208 212 216 216 217 220 216 211 211 209 206 213 218 215 217 222 221 221 228 229 225 222 222 225 225 223 222 222 223 225 229 232 233 232 232 233 235 238 245 249 248 254 262 257 245 236 233 232 233 234 237 243 249 254 257 260 263 264 261 252 247 253 259 261 263 265 269 275 281 287 299 313 323 333 339 336 333
203 204 206 208 209 209 209 209 210 214 214 215 219 218 211 210 213 209 210 217 216 212 215 220 218 218 226 229 223 215 215 222 224 223 223 222 223 225 230 234 235 232 230 231 230 232 240 246 247 255 261 251 239 233 232 232 233 235 238 243 249 256 262 266 266 266 260 249 245 253 260 261 261 261 263 269 277 284 292 303 314 323 331 332 330
205 206 207 208 209 208 208 210 213 213 211 216 221 215 209 212 211 206 209 213 211 212 216 218 217 217 223 227 219 208 211 220 222 224 224 223 223 224 227 232 234 231 229 229 228 230 237 245 249 254 256 245 234 231 233 234 235 238 241 245 251 259 265 266 265 264 257 250 249 255 259 260 260 259 261 267 276 283 287 295 305 314 321 326 329
207 207 207 207 207 208 208 210 211 210 212 219 218 210 212 214 209 211 215 207 203 213 218 218 218 217 221 225 215 205 212 218 217 220 223 223 224 225 228 232 234 233 232 230 230 232 239 248 252 255 255 245 236 234 235 235 236 241 246 251 256 261 262 261 262 261 254 249 252 257 261 261 260 260 261 265 274 280 282 286 294 304 312 318 325
206 204 205 206 207 208 209 209 209 211 216 218 212 212 217 213 210 217 217 205 201 211 214 216 218 215 219 222 213 207 214 216 214 218 220 220 224 228 230 234 235 236 235 232 233 236 243 253 257 257 257 253 245 238 235 234 236 243 251 256 260 259 253 255 260 258 252 251 253 259 263 262 258 258 261 265 273 278 278 279 285 294 302 308 316
207 204 205 207 207 207 208 208 209 212 212 208 209 215 216 214 216 218 211 204 209 213 212 214 213 210 213 215 210 213 219 218 216 218 218 222 228 231 232 233 235 238 236 233 234 238 248 261 263 257 257 262 258 244 235 234 237 245 255 260 262 258 252 252 256 257 256 256 256 257 259 258 255 255 258 263 268 271 272 275 280 287 291 296 307
209 206 205 206 206 206 208 208 208 209 206 204 210 215 214 217 221 215 207 207 212 211 212 214 210 207 209 209 211 219 223 221 219 219 218 222 229 234 233 229 234 241 241 237 236 241 253 266 266 258 255 263 267 251 236 233 238 249 263 268 266 261 254 252 254 256 256 256 256 256 256 254 251 251 254 257 257 258 264 272 278 282 282 283 296
209 207 205 205 204 206 207 207 206 207 207 207 211 215 216 218 217 210 208 213 213 211 213 210 206 206 209 211 216 223 224 223 223 224 224 224 229 236 234 229 234 242 245 244 241 243 255 266 265 260 256 260 268 258 240 234 239 251 265 270 266 257 250 249 253 255 255 256 257 257 256 253 248 247 248 248 247 252 262 272 280 282 277 275 286
208 205 203 203 203 204 205 206 207 210 210 209 210 214 216 214 208 205 209 213 213 216 216 211 208 210 210 213 219 224 226 227 226 226 227 226 229 236 237 234 236 242 248 252 247 246 255 261 259 256 254 255 262 259 244 235 239 250 261 265 259 250 246 249 255 256 256 257 258 256 255 251 245 240 240 242 247 258 270 277 283 283 277 273 280
212 207 202 201 203 204 205 207 209 212 213 211 211 215 218 213 205 203 208 211 211 217 219 213 210 212 214 215 220 227 231 232 231 231 229 226 228 233 235 235 237 240 245 249 247 247 252 254 252 250 251 252 255 254 245 236 239 248 256 259 255 249 248 253 258 259 259 258 258 257 253 250 245 240 239 244 252 264 275 282 285 281 274 271 277
212 210 206 204 205 203 205 208 209 208 208 208 209 214 218 214 206 203 206 210 212 218 223 220 216 218 223 225 227 233 238 238 238 238 235 231 230 233 234 235 236 238 241 244 247 249 250 251 251 251 252 253 252 251 247 241 242 248 254 258 258 253 252 255 258 259 259 257 260 261 258 254 251 245 242 246 254 264 274 281 284 280 271 269 278
209 211 208 205 203 201 203 209 208 203 202 205 208 211 214 212 206 203 205 208 209 213 218 217 215 216 223 229 231 235 240 241 241 242 242 240 237 236 238 239 238 239 242 246 250 252 250 250 252 252 254 255 253 252 250 248 249 252 254 257 257 255 255 256 255 256 257 260 265 269 268 263 257 249 244 247 254 263 270 275 280 280 275 275 286
206 210 209 206 207 203 199 203 208 205 204 207 209 211 213 210 204 201 201 201 203 208 212 211 210 210 214 220 226 232 242 249 251 252 252 248 243 242 243 245 245 245 246 249 252 253 253 253 254 255 257 258 256 254 253 253 254 254 253 253 253 254 256 258 257 258 260 262 266 274 278 275 265 254 248 248 253 261 267 271 274 275 277 282 290
205 207 207 208 210 205 199 201 208 209 209 211 210 209 210 208 204 202 199 193 191 198 206 208 212 217 217 215 220 236 253 259 247 239 236 232 233 236 238 241 245 245 244 246 249 251 253 255 257 258 258 256 255 254 254 255 256 254 251 250 250 252 255 259 262 263 263 262 265 274 283 282 273 262 253 250 252 259 264 268 270 270 275 282 288
201 203 204 206 207 204 202 204 208 210 212 212 210 207 205 203 202 202 201 198 195 194 196 199 206 214 214 214 224 240 247 234 212 203 197 198 209 218 220 224 231 235 239 243 246 248 251 255 256 256 255 253 252 252 253 255 256 254 252 251 251 252 257 263 267 267 266 263 262 268 279 283 277 266 257 254 255 258 262 265 268 270 274 279 285
198 200 201 204 205 204 203 205 206 209 209 208 208 207 201 198 199 199 201 203 201 194 192 197 201 203 205 210 223 230 224 213 207 203 198 198 207 213 215 217 220 225 231 237 242 245 250 252 252 253 252 251 250 250 252 255 257 257 257 256 255 257 261 267 268 267 264 261 258 263 276 284 278 267 260 258 258 259 261 264 267 272 276 279 284
194 196 198 202 203 202 202 205 206 206 205 203 203 201 198 199 202 201 200 203 202 193 188 192 193 192 195 202 208 210 207 205 205 207 208 210 213 217 221 222 221 222 224 229 235 240 244 247 249 251 252 252 250 249 251 254 256 258 259 258 258 259 260 262 265 265 261 255 253 261 275 283 281 271 262 258 258 259 262 264 267 272 278 281 285
192 194 196 199 198 197 200 204 203 200 197 196 195 194 198 205 207 202 198 202 202 194 189 189 188 186 187 191 196 201 205 207 207 211 214 217 219 224 228 229 229 228 228 230 234 238 242 248 253 256 257 258 257 255 254 254 255 257 258 259 260 258 256 256 259 262 258 251 251 259 271 281 283 274 263 256 256 258 261 263 264 270 276 280 286
190 192 195 197 197 196 196 194 191 188 186 187 188 191 194 198 198 195 196 202 201 193 188 189 190 189 187 188 192 198 204 206 207 210 215 220 225 229 232 233 233 232 233 234 237 241 247 254 260 265 266 266 266 264 261 259 258 258 258 259 259 258 256 253 252 253 253 251 252 257 265 273 278 273 265 259 257 258 261 261 261 265 270 276 283
190 192 195 195 191 186 177 169 166 169 173 175 177 179 178 177 179 185 192 196 195 191 189 192 196 195 190 190 195 203 207 208 209 212 215 219 224 229 234 236 236 235 235 237 241 246 254 260 266 269 270 270 271 269 267 264 261 260 260 259 257 256 254 250 247 245 246 249 252 256 263 268 270 267 262 258 256 259 261 257 253 257 262 266 275
187 184 179 174 170 163 156 153 156 161 164 167 170 172 173 174 179 184 187 188 188 189 191 196 201 200 196 195 201 208 212 214 215 215 215 216 220 226 231 235 236 235 236 237 241 247 256 263 266 267 267 269 271 271 270 267 262 260 259 258 256 255 253 251 246 242 242 245 249 253 259 263 261 258 257 255 254 256 255 246 242 248 255 260 269
170 160 153 156 159 155 151 151 155 160 164 167 169 170 172 175 178 180 182 185 188 192 195 198 204 207 207 208 210 212 214 216 217 217 218 218 221 226 231 233 235 237 238 238 241 250 262 268 268 265 265 269 272 273 271 267 263 260 259 257 256 254 253 252 249 245 243 243 245 248 253 255 253 253 255 256 255 253 246 237 237 247 255 264 273
154 150 150 156 159 155 153 154 157 161 166 168 168 169 172 175 180 184 187 190 191 193 193 194 200 207 209 210 210 210 211 214 218 222 225 225 227 231 234 234 235 237 238 239 242 254 268 273 270 265 265 267 271 270 268 265 263 261 258 256 255 254 254 253 252 250 247 245 244 244 246 246 247 250 254 256 258 253 240 232 237 247 255 266 276
151 153 156 159 159 157 157 159 162 166 169 170 171 173 176 179 184 187 188 188 187 184 182 182 185 189 191 193 197 201 206 213 220 225 227 228 230 233 235 237 240 241 241 242 247 258 266 265 262 260 261 262 264 263 263 263 262 260 258 257 257 256 256 254 250 247 245 243 240 237 238 241 248 251 252 255 259 251 236 231 238 248 258 270 282
142 144 145 144 144 145 146 147 150 155 158 161 165 169 170 172 175 177 178 179 178 176 174 171 171 173 177 182 189 197 204 209 214 218 221 223 226 229 232 237 240 239 238 239 245 254 257 254 250 250 250 252 255 257 259 262 262 260 258 257 256 256 255 253 250 247 242 238 235 234 237 242 247 250 251 254 255 248 236 234 242 255 268 281 288
133 135 136 135 136 138 138 140 143 145 148 152 158 163 167 171 173 175 176 176 175 173 172 171 171 175 181 188 196 203 208 208 209 211 214 215 218 221 225 231 235 236 237 240 245 250 251 248 246 244 242 243 246 249 253 257 259 258 257 254 252 252 252 251 249 246 242 239 239 240 241 243 246 249 251 248 244 240 237 242 256 271 283 291 293
137 138 139 138 138 138 139 142 145 146 148 153 157 162 169 174 177 177 175 172 171 171 172 174 178 184 190 196 202 206 209 209 209 210 212 215 219 223 228 232 236 239 241 242 244 248 250 249 248 245 242 240 241 244 248 252 254 254 255 253 250 249 248 246 245 242 239 239 242 243 243 245 246 243 237 230 231 238 248 261 276 288 295 296 293
139 139 140 139 138 139 140 143 147 149 150 152 153 155 158 163 166 167 167 168 170 173 176 179 184 188 192 197 201 205 208 211 214 217 220 223 226 228 230 233 236 238 239 241 244 249 252 254 253 250 246 243 243 244 246 250 252 253 253 251 249 247 244 242 239 232 225 227 234 241 244 243 235 224 219 223 235 251 263 276 288 294 294 290 285
141 143 144 143 142 142 143 145 149 150 150 150 149 148 148 148 149 150 155 163 171 177 182 187 191 194 197 202 206 210 213 216 218 221 223 223 221 220 221 224 227 229 231 236 242 248 252 256 257 256 253 249 247 247 248 250 253 254 253 251 249 245 239 234 230 222 216 217 223 229 229 222 213 211 218 230 243 254 266 278 285 287 284 281 279
147 148 148 148 147 147 147 149 150 151 150 150 150 150 150 149 148 148 153 161 168 173 176 179 182 185 188 193 200 207 211 215 217 218 218 218 218 218 220 222 224 225 230 237 243 248 254 259 261 262 259 254 250 250 251 252 253 254 253 251 248 242 234 228 225 221 217 218 220 218 213 210 211 218 228 238 247 258 269 275 275 275 278 281 281
147 148 148 148 147 147 147 148 149 152 153 155 156 156 156 156 159 162 167 171 170 167 162 159 160 166 173 179 187 198 206 210 213 214 215 217 219 223 226 227 227 228 233 240 246 252 259 263 264 264 260 254 250 249 250 252 254 254 253 252 249 243 235 230 227 224 221 221 224 222 219 219 223 230 237 247 257 264 268 269 270 274 279 281 283
142 141 141 142 142 143 144 144 146 151 156 160 164 165 166 167 169 171 173 173 170 167 166 167 172 179 184 188 194 203 210 213 214 216 218 219 221 224 228 233 238 241 243 246 252 257 262 264 265 263 257 251 248 248 249 252 256 258 258 256 253 247 241 236 232 229 226 227 231 233 233 233 236 242 250 258 264 267 269 271 273 274 274 276 281
135 135 136 137 137 137 136 135 134 135 138 143 152 160 167 172 174 173 172 171 171 172 175 178 179 184 191 196 200 206 213 217 219 220 221 225 227 230 234 240 247 254 258 260 261 260 259 259 259 258 254 250 248 248 249 253 257 261 263 262 260 254 247 242 239 235 233 234 238 242 244 247 250 254 258 262 265 267 271 273 272 270 270 274 280
130 133 134 135 136 134 131 128 124 121 119 119 124 136 155 171 177 175 172 172 174 176 172 163 154 155 167 183 194 202 209 215 219 221 224 227 231 233 236 239 244 251 258 262 262 259 257 255 254 253 252 249 247 248 251 255 260 264 266 267 264 259 252 246 243 240 239 241 244 248 251 254 257 258 260 262 265 268 271 273 272 270 271 275 278
133 136 138 141 140 136 130 124 117 111 107 103 101 107 132 164 178 181 179 177 176 172 162 150 141 140 148 164 180 189 195 202 209 213 217 221 225 231 237 244 250 255 261 265 265 260 254 250 248 248 247 247 248 250 254 260 267 272 273 271 267 261 253 247 244 242 242 244 248 251 253 256 257 259 261 262 264 267 269 271 271 272 274 276 278
Height
1459 1462 1465 1469 1472 1475 1478 1481 1484 1487 1489 1491 1494 1497 1500 1503 1505 1507 1508 1511 1514 1516 1518 1520 1522 1524 1526 1527 1528 1529 1530 1530 1531 1532 1532 1533 1534 1535 1535 1537 1538 1539 1540 1541 1542 1543 1544 1545 1546 1546 1547 1548 1548 1549 1550 1550 1551 1551 1551 1551 1551 1552 1552 1553 1553 1553 1553 1553 1554 1554 1554 1554 1553 1553 1553 1552 1551 1549 1548 1546 1544 1543 1542 1541 1541
1455 1458 1462 1466 1469 1472 1476 1479 1481 1484 1486 1489 1491 1494 1497 1500 1503 1505 1506 1509 1511 1514 1516 1518 1520 1522 1524 1525 1526 1527 1528 1528 1529 1530 1530 1531 1532 1533 1534 1535 1536 1538 1539 1539 1540 1542 1543 1543 1544 1545 1546 1547 1547 1548 1549 1549 1550 1550 1550 1550 1550 1551 1551 1551 1552 1552 1552 1552 1553 1553 1553 1553 1552 1552 1551 1551 1550 1548 1547 1545 1544 1542 1541 1540 1540
1451 1455 1459 1463 1467 1470 1473 1476 1479 1481 1483 1486 1489 1492 1495 1498 1501 1503 1505 1507 1509 1512 1515 1517 1518 1520 1522 1523 1524 1525 1526 1527 1527 1527 1528 1529 1530 1531 1533 1534 1535 1536 1537 1538 1539 1540 1541 1542 1543 1544 1545 1546 1546 1547 1548 1548 1549 1549 1549 1550 1550 1550 1550 1551 1551 1552 1552 1552 1553 1553 1553 1553 1552 1552 1551 1550 1549 1548 1546 1545 1543 1541 1540 1539 1539
1448 1451 1455 1460 1464 1467 1470 1473 1476 1478 1481 1483 1486 1489 1492 1495 1498 1501 1503 1505 1508 1510 1513 1515 1516 1518 1520 1521 1522 1523 1524 1525 1526 1526 1527 1528 1529 1530 1532 1533 1534 1535 1536 1537 1538 1539 1540 1541 1542 1543 1544 1544 1545 1546 1547 1547 1548 1548 1549 1549 1549 1550 1550 1551 1551 1551 1552 1552 1553 1553 1553 1553 1553 1552 1551 1549 1548 1547 1546 1544 1542 1541 1539 1538 1538
1444 1448 1452 1457 1461 1464 1467 1469 1473 1475 1478 1480 1483 1487 1490 1493 1496 1499 1501 1503 1506 1508 1511 1512 1514 1516 1517 1519 1520 1521 1523 1523 1524 1525 1526 1527 1528 1529 1530 1531 1533 1534 1534 1535 1536 1537 1538 1540 1541 1541 1542 1543 1544 1545 1546 1546 1547 1547 1548 1548 1549 1549 1549 1550 1550 1551 1551 1552 1552 1553 1552 1552 1552 1552 1551 1549 1548 1547 1546 1544 1542 1540 1539 1538 1537
1441 1445 1449 1453 1457 1460 1463 1466 1469 1472 1475 1477 1481 1484 1487 1490 1493 1496 1499 1501 1504 1506 1508 1510 1512 1514 1515 1516 1518 1519 1520 1521 1522 1523 1524 1525 1526 1527 1528 1529 1530 1531 1532 1533 1534 1536 1537 1538 1539 1540 1541 1542 1543 1544 1544 1545 1546 1546 1547 1547 1548 1548 1549 1549 1549 1549 1550 1550 1551 1551 1551 1551 1551 1551 1550 1549 1548 1547 1546 1543 1541 1539 1539 1538 1537
1438 1442 1446 1450 1454 1457 1459 1462 1466 1469 1472 1475 1479 1482 1485 1488 1491 1494 1497 1499 1501 1504 1506 1508 1510 1511 1513 1514 1515 1517 1518 1519 1520 1521 1522 1523 1524 1525 1526 1527 1528 1529 1530 1531 1533 1534 1535 1536 1538 1539 1540 1541 1542 1543 1544 1544 1545 1545 1546 1547 1547 1547 1547 1547 1548 1548 1548 1548 1549 1549 1549 1548 1548 1548 1548 1547 1546 1545 1544 1542 1540 1539 1538 1537 1536
1435 1439 1443 1447 1450 1453 1456 1459 1463 1467 1470 1473 1477 1480 1483 1486 1488 1492 1494 1496 1499 1502 1504 1506 1508 1509 1510 1512 1513 1515 1516 1517 1518 1519 1520 1521 1522 1523 1524 1525 1526 1527 1528 1529 1531 1532 1533 1535 1536 1537 1538 1539 1541 1542 1543 1544 1544 1545 1546 1546 1546 1545 1545 1545 1545 1545 1545 1545 1546 1546 1547 1546 1545 1545 1546 1546 1545 1544 1542 1540 1538 1537 1537 1536 1534
1431 1435 1440 1443 1446 1450 1453 1457 1461 1464 1467 1471 1474 1477 1480 1483 1486 1489 1492 1494 1497 1500 1502 1504 1505 1507 1508 1510 1511 1512 1514 1515 1516 1517 1518 1519 1521 1522 1523 1523 1524 1525 1526 1528 1529 1531 1532 1533 1534 1536 1537 1538 1539 1540 1542 1543 1543 1543 1544 1545 1545 1545 1544 1544 1543 1543 1543 1543 1543 1544 1544 1544 1543 1543 1544 1544 1544 1543 1541 1539 1537 1536 1536 1535 1534
1429 1433 1436 1440 1444 1447 1451 1454 1458 1462 1465 1468 1471 1474 1478 1481 1484 1487 1490 1492 1495 1497 1499 1501 1503 1505 1506 1508 1509 1511 1512 1513 1514 1516 1517 1518 1519 1520 1521 1522 1523 1524 1525 1526 1527 1529 1530 1531 1532 1534 1535 1536 1538 1539 1540 1540 1541 1541 1542 1543 1544 1544 1544 1543 1543 1543 1543 1542 1542 1543 1543 1543 1542 1542 1543 1543 1542 1541 1539 1537 1536 1535 1535 1534 1533
1427 1430 1434 1438 1442 1445 1449 1452 1456 1460 1463 1466 1469 1472 1475 1478 1482 1484 1487 1490 1492 1495 1497 1499 1501 1502 1504 1506 1508 1509 1511 1512 1513 1515 1516 1517 1518 1519 1520 1520 1521 1522 1523 1524 1526 1527 1529 1530 1531 1532 1534 1535 1536 1538 1538 1538 1539 1540 1541 1542 1543 1543 1543 1543 1543 1543 1543 1542 1542 1542 1542 1542 1542 1542 1542 1542 1541 1540 1538 1537 1536 1535 1534 1532 1531
1424 1428 1432 1436 1439 1443 1446 1450 1454 1457 1460 1463 1466 1469 1473 1476 1479 1482 1485 1487 1490 1493 1495 1497 1499 1501 1502 1504 1506 1508 1509 1511 1512 1513 1515 1516 1517 1517 1518 1519 1520 1521 1522 1523 1525 1526 1527 1529 1530 1531 1533 1534 1535 1536 1537 1538 1538 1539 1540 1541 1541 1542 1542 1543 1543 1543 1543 1543 1543 1543 1542 1542 1542 1542 1542 1542 1541 1539 1538 1536 1535 1534 1533 1532 1530
1422 1426 1430 1434 1436 1440 1444 1448 1451 1455 1458 1461 1464 1467 1471 1474 1477 1480 1482 1485 1488 1491 1493 1495 1497 1499 1501 1502 1504 1506 1508 1509 1511 1512 1513 1514 1515 1516 1517 1518 1519 1520 1521 1522 1524 1525 1526 1528 1529 1530 1532 1533 1535 1535 1536 1536 1537 1538 1539 1539 1540 1541 1541 1542 1542 1542 1542 1543 1543 1542 1542 1542 1542 1541 1541 1541 1540 1539 1537 1536 1535 1534 1532 1531 1530
1419 1423 1427 1431 1434 1438 1442 1445 1449 1452 1456 1459 1462 1465 1468 1471 1475 1478 1481 1484 1486 1489 1491 1493 1495 1497 1499 1501 1503 1505 1507 1508 1509 1511 1512 1513 1514 1514 1515 1516 1517 1519 1520 1522 1523 1524 1526 1527 1528 1529 1531 1532 1533 1534 1534 1535 1536 1537 1537 1538 1539 1540 1540 1541 1541 1541 1542 1542 1542 1542 1542 1541 1541 1541 1541 1540 1539 1538 1537 1536 1534 1533 1532 1531 1530
1416 1420 1424 1427 1431 1435 1439 1442 1446 1450 1454 1457 1460 1462 1466 1469 1473 1476 1479 1482 1485 1487 1490 1492 1494 1496 1498 1499 1502 1503 1505 1507 1508 1509 1510 1511 1512 1513 1514 1515 1516 1518 1519 1520 1522 1523 1524 1526 1527 1528 1530 1531 1532 1532 1533 1534 1535 1535 1536 1537 1538 1538 1539 1540 1540 1541 1541 1541 1541 1541 1540 1540 1540 1540 1540 1539 1539 1538 1536 1535 1534 1532 1531 1530 1529
1414 1418 1421 1424 1428 1432 1435 1439 1443 1447 1451 1454 1457 1460 1463 1467 1470 1474 1477 1480 1483 1485 1488 1490 1492 1495 1496 1498 1500 1502 1503 1505 1506 1507 1509 1510 1511 1511 1512 1514 1515 1516 1518 1519 1520 1521 1523 1524 1525 1527 1528 1529 1530 1530 1531 1532 1533 1534 1535 1536 1537 1537 1538 1539 1539 1539 1540 1540 1540 1539 1539 1538 1538 1538 1538 1538 1538 1537 1536 1535 1533 1532 1531 1529 1529
1412 1415 1418 1421 1425 1429 1433 1437 1441 1445 1448 1451 1454 1457 1461 1465 1468 1471 1474 1477 1480 1483 1486 1488 1491 1493 1495 1496 1498 1500 1502 1503 1504 1506 1507 1508 1509 1510 1511 1512 1514 1515 1516 1517 1519 1520 1521 1522 1523 1525 1526 1527 1528 1528 1529 1530 1531 1532 1534 1535 1535 1536 1537 1537 1538 1538 1538 1538 1538 1538 1538 1537 1537 1537 1537 1537 1536 1536 1535 1534 1533 1531 1530 1529 1527
1410 1413 1415 1418 1422 1426 1430 1434 1438 1442 1445 1448 1451 1455 1459 1463 1466 1469 1472 1475 1478 1481 1484 1486 1489 1491 1493 1495 1497 1499 1500 1502 1503 1504 1505 1507 1508 1509 1510 1511 1512 1513 1514 1516 1517 1518 1519 1520 1521 1523 1524 1525 1526 1527 1527 1529 1530 1531 1532 1533 1534 1534 1535 1536 1536 1537 1537 1537 1537 1537 1537 1536 1536 1536 1536 1536 1535 1535 1534 1533 1532 1531 1530 1528 1526
1406 1409 1412 1416 1419 1423 1428 1432 1436 1440 1443 1446 1450 1454 1458 1461 1464 1467 1470 1473 1476 1479 1482 1484 1486 1488 1491 1493 1495 1497 1499 1500 1501 1502 1504 1505 1506 1508 1509 1510 1511 1512 1513 1514 1515 1517 1518 1519 1520 1521 1522 1523 1524 1525 1526 1527 1528 1530 1531 1532 1532 1533 1534 1534 1534 1535 1535 1535 1535 1535 1535 1535 1535 1534 1534 1534 1534 1533 1533 1532 1531 1530 1529 1528 1526
1402 1406 1410 1414 1418 1422 1426 1431 1435 1438 1442 1445 1449 1453 1457 1459 1462 1464 1467 1470 1473 1476 1479 1481 1483 1486 1489 1491 1493 1495 1497 1498 1500 1501 1502 1503 1505 1506 1507 1508 1509 1511 1512 1513 1514 1515 1516 1517 1518 1519 1520 1521 1522 1523 1524 1525 1526 1528 1529 1530 1531 1532 1533 1533 1533 1533 1534 1534 1534 1533 1533 1533 1533 1533 1533 1533 1532 1532 1532 1531 1530 1529 1528 1527 1525
1402 1405 1408 1412 1416 1420 1424 1429 1433 1437 1441 1444 1448 1452 1454 1457 1459 1461 1464 1468 1471 1473 1476 1478 1481 1484 1486 1489 1491 1493 1495 1496 1498 1499 1500 1501 1502 1504 1505 1506 1508 1509 1510 1511 1513 1514 1515 1516 1516 1517 1518 1519 1520 1521 1522 1523 1525 1526 1527 1528 1529 1530 1531 1531 1531 1531 1531 1532 1532 1532 1532 1532 1532 1532 1531 1531 1530 1530 1530 1529 1529 1528 1527 1526 1524
1400 1403 1406 1410 1414 1418 1423 1428 1432 1436 1439 1443 1446 1448 1451 1453 1456 1459 1463 1466 1469 1471 1473 1476 1479 1481 1483 1485 1488 1490 1492 1494 1496 1497 1499 1500 1500 1501 1503 1505 1506 1508 1509 1510 1511 1512 1513 1514 1515 1516 1517 1517 1518 1519 1520 1521 1523 1524 1525 1526 1527 1528 1528 1529 1529 1529 1529 1530 1530 1530 1530 1530 1530 1530 1530 1530 1529 1528 1528 1528 1527 1527 1526 1525 1524
1399 1401 1404 1407 1411 1416 1421 1425 1430 1433 1436 1439 1442 1444 1446 1450 1453 1457 1462 1464 1466 1469 1471 1474 1476 1478 1480 1482 1484 1487 1489 1491 1493 1495 1496 1498 1499 1499 1501 1503 1504 1505 1506 1508 1509 1511 1512 1513 1514 1514 1515 1516 1516 1517 1518 1520 1520 1522 1523 1524 1525 1526 1526 1526 1526 1527 1527 1527 1527 1528 1528 1528 1528 1528 1528 1528 1528 1527 1527 1527 1526 1525 1525 1524 1523
1397 1399 1402 1405 1409 1414 1419 1423 1426 1429 1432 1435 1438 1440 1443 1447 1451 1455 1459 1461 1463 1465 1467 1469 1472 1474 1476 1479 1481 1483 1486 1488 1491 1493 1494 1495 1497 1498 1499 1501 1502 1503 1504 1506 1507 1509 1510 1511 1512 1513 1513 1514 1514 1515 1516 1517 1518 1519 1521 1522 1522 1523 1523 1524 1524 1524 1524 1525 1525 1525 1526 1526 1526 1526 1526 1526 1526 1526 1526 1525 1525 1524 1524 1523 1522
1394 1396 1399 1403 1407 1412 1416 1419 1423 1425 1428 1431 1434 1437 1440 1444 1447 1451 1455 1458 1461 1462 1463 1466 1469 1471 1473 1476 1478 1480 1483 1485 1488 1490 1491 1493 1495 1496 1497 1499 1500 1501 1502 1504 1505 1507 1508 1509 1510 1510 1511 1512 1512 1513 1514 1515 1516 1517 1518 1519 1520 1520 1521 1521 1522 1522 1522 1522 1523 1523 1524 1524 1524 1524 1524 1524 1524 1524 1524 1524 1524 1523 1522 1522 1521
1392 1393 1395 1400 1405 1409 1412 1416 1418 1420 1424 1428 1431 1434 1437 1441 1444 1447 1451 1455 1457 1459 1461 1464 1467 1469 1472 1473 1475 1478 1480 1482 1485 1487 1489 1490 1492 1494 1495 1497 1498 1499 1501 1502 1503 1505 1506 1507 1508 1508 1508 1509 1509 1510 1511 1512 1513 1514 1515 1516 1517 1518 1518 1519 1519 1519 1519 1520 1520 1521 1521 1522 1522 1522 1522 1522 1522 1523 1522 1522 1522 1521 1521 1520 1519
1390 1392 1395 1400 1404 1407 1409 1412 1414 1417 1421 1425 1429 1431 1434 1438 1441 1445 1448 1451 1454 1457 1461 1464 1467 1470 1472 1473 1475 1476 1478 1480 1483 1485 1486 1488 1490 1491 1493 1494 1496 1497 1498 1500 1501 1502 1503 1504 1504 1505 1505 1506 1506 1507 1508 1509 1510 1511 1513 1514 1515 1515 1516 1517 1517 1517 1517 1518 1518 1518 1519 1519 1519 1520 1520 1520 1520 1521 1521 1520 1520 1519 1519 1518 1517
1390 1393 1396 1399 1402 1404 1407 1410 1412 1415 1419 1422 1426 1429 1432 1435 1439 1443 1446 1448 1451 1455 1458 1460 1463 1467 1470 1472 1473 1474 1476 1478 1480 1482 1484 1485 1487 1489 1491 1492 1493 1495 1496 1498 1499 1500 1500 1501 1501 1502 1502 1503 1503 1504 1505 1506 1507 1508 1510 1511 1512 1513 1513 1514 1514 1514 1515 1516 1516 1516 1517 1517 1517 1518 1518 1518 1518 1519 1519 1518 1518 1517 1517 1516 1516
1389 1392 1395 1398 1400 1402 1405 1408 1411 1414 1417 1421 1424 1427 1430 1434 1437 1441 1444 1446 1449 1452 1455 1458 1461 1463 1466 1468 1470 1472 1474 1476 1477 1479 1481 1483 1485 1487 1489 1490 1492 1493 1495 1496 1497 1497 1498 1498 1498 1499 1500 1500 1500 1501 1502 1503 1504 1505 1507 1508 1509 1510 1510 1511 1511 1512 1513 1513 1514 1514 1515 1515 1515 1515 1515 1516 1516 1517 1516 1516 1516 1516 1515 1514 1513
1385 1389 1394 1397 1399 1401 1404 1407 1410 1412 1416 1419 1423 1426 1429 1432 1436 1440 1442 1444 1447 1451 1453 1456 1459 1461 1464 1466 1468 1470 1472 1474 1475 1476 1478 1480 1483 1485 1487 1489 1490 1492 1493 1494 1494 1494 1495 1495 1496 1496 1496 1497 1497 1498 1499 1500 1501 1502 1503 1505 1506 1507 1507 1508 1509 1510 1511 1511 1512 1512 1513 1512 1512 1513 1513 1513 1514 1514 1514 1514 1514 1514 1513 1512 1511
1380 1385 1390 1394 1397 1400 1403 1406 1409 1411 1414 1417 1420 1423 1427 1431 1435 1438 1441 1443 1446 1449 1451 1454 1456 1459 1462 1464 1466 1468 1470 1471 1473 1474 1475 1477 1480 1482 1484 1486 1488 1489 1491 1491 1491 1492 1492 1492 1492 1493 1493 1493 1494 1495 1496 1497 1498 1499 1500 1501 1502 1504 1505 1506 1507 1507 1508 1508 1509 1510 1510 1510 1510 1510 1510 1511 1511 1511 1512 1511 1511 1511 1511 1511 1510
1374 1379 1385 1390 1394 1398 1402 1405 1408 1410 1412 1415 1419 1422 1426 1429 1432 1436 1439 1442 1444 1447 1449 1452 1454 1456 1459 1461 1464 1466 1468 1469 1470 1472 1473 1475 1477 1479 1481 1483 1485 1486 1488 1488 1488 1489 1489 1489 1489 1489 1489 1490 1490 1492 1493 1494 1495 1496 1497 1498 1499 1501 1502 1503 1504 1504 1505 1505 1506 1507 1507 1507 1507 1507 1508 1508 1508 1509 1509 1509 1509 1509 1509 1508 1508
1369 1374 1379 1385 1389 1394 1398 1401 1404 1406 1410 1413 1417 1421 1425 1428 1431 1434 1437 1440 1442 1444 1447 1449 1452 1454 1457 1459 1461 1463 1465 1466 1468 1470 1471 1473 1474 1476 1478 1480 1482 1483 1484 1485 1485 1485 1485 1486 1486 1486 1486 1487 1487 1489 1489 1490 1492 1493 1493 1494 1496 1497 1499 1500 1500 1501 1501 1502 1503 1504 1504 1504 1504 1505 1505 1505 1506 1506 1506 1506 1506 1506 1506 1506 1505
1367 1371 1375 1379 1384 1389 1393 1397 1400 1404 1408 1413 1417 1421 1424 1427 1430 1433 1436 1438 1440 1442 1444 1447 1449 1451 1454 1457 1459 1460 1462 1464 1466 1468 1469 1471 1472 1474 1476 1478 1479 1480 1481 1481 1482 1482 1483 1483 1483 1483 1484 1484 1485 1485 1486 1487 1488 1489 1490 1491 1492 1494 1495 1496 1497 1498 1499 1499 1500 1501 1502 1502 1502 1502 1502 1503 1503 1503 1503 1504 1504 1503 1503 1503 1503
1367 1371 1374 1377 1381 1386 1391 1395 1399 1404 1409 1413 1417 1420 1423 1426 1429 1432 1435 1437 1438 1440 1442 1445 1447 1449 1451 1454 1456 1458 1460 1462 1463 1465 1467 1468 1470 1472 1473 1475 1476 1477 1478 1479 1479 1480 1481 1481 1481 1481 1481 1481 1482 1482 1483 1484 1485 1485 1486 1487 1488 1490 1491 1492 1493 1495 1496 1497 1497 1498 1499 1499 1499 1500 1500 1500 1500 1501 1501 1501 1501 1501 1501 1501 1501
1370 1373 1375 1379 1383 1387 1391 1395 1400 1404 1409 1413 1416 1420 1423 1425 1428 1431 1433 1435 1437 1439 1441 1444 1446 1448 1450 1452 1455 1456 1458 1460 1462 1463 1465 1466 1468 1469 1471 1472 1473 1475 1476 1477 1478 1478 1478 1479 1479 1479 1479 1479 1479 1480 1480 1481 1481 1482 1483 1484 1484 1486 1487 1488 1489 1491 1492 1493 1494 1495 1496 1496 1497 1497 1497 1497 1498 1498 1498 1498 1498 1498 1499 1499 1498
1372 1376 1378 1381 1385 1387 1391 1395 1399 1404 1409 1413 1416 1419 1422 1425 1427 1430 1432 1434 1436 1438 1440 1442 1444 1446 1448 1451 1453 1455 1457 1458 1460 1462 1463 1464 1465 1467 1468 1470 1471 1473 1474 1475 1476 1476 1476 1476 1477 1477 1477 1477 1477 1477 1477 1478 1478 1479 1480 1480 1481 1481 1483 1484 1485 1486 1488 1489 1490 1491 1492 1493 1493 1494 1494 1494 1495 1495 1496 1496 1496 1496 1496 1496 1496
1375 1378 1381 1384 1387 1389 1391 1395 1400 1405 1409 1413 1416 1419 1421 1424 1426 1428 1430 1432 1434 1436 1438 1440 1442 1445 1447 1449 1451 1453 1455 1456 1458 1459 1461 1462 1463 1465 1466 1468 1470 1471 1472 1473 1474 1474 1474 1474 1474 1474 1474 1474 1474 1474 1475 1475 1475 1476 1476 1477 1477 1478 1479 1480 1481 1482 1483 1484 1486 1487 1488 1489 1490 1491 1491 1492 1492 1493 1493 1493 1493 1494 1494 1494 1493
1377 1380 1384 1387 1390 1392 1394 1397 1401 1405 1408 1412 1415 1418 1421 1423 1425 1427 1429 1430 1432 1434 1436 1438 1441 1443 1445 1447 1449 1451 1452 1454 1456 1457 1459 1460 1462 1464 1465 1467 1468 1469 1470 1471 1471 1471 1471 1472 1472 1472 1472 1472 1472 1472 1472 1472 1472 1473 1473 1473 1474 1475 1475 1476 1478 1479 1480 1481 1482 1484 1485 1486 1487 1488 1488 1489 1489 1490 1490 1491 1491 1491 1491 1491 1491
1379 1383 1386 1389 1391 1393 1396 1398 1402 1405 1408 1411 1414 1417 1420 1422 1424 1426 1428 1429 1431 1433 1435 1438 1440 1441 1443 1445 1447 1448 1450 1452 1454 1456 1457 1459 1460 1462 1463 1465 1466 1467 1468 1468 1469 1469 1469 1469 1469 1469 1469 1470 1470 1470 1470 1470 1470 1470 1470 1471 1471 1472 1473 1474 1475 1476 1477 1478 1479 1480 1481 1483 1484 1484 1485 1486 1487 1487 1488 1488 1488 1489 1489 1489 1489
1381 1384 1387 1389 1391 1394 1396 1399 1402 1405 1408 1411 1414 1416 1419 1421 1423 1425 1427 1429 1430 1433 1435 1437 1438 1440 1442 1443 1445 1447 1448 1450 1452 1454 1456 1457 1459 1460 1462 1463 1464 1465 1465 1466 1466 1466 1466 1466 1466 1466 1467 1467 1467 1467 1467 1468 1468 1468 1468 1468 1469 1470 1471 1472 1472 1473 1474 1475 1476 1477 1478 1480 1481 1481 1482 1483 1484 1485 1485 1486 1486 1487 1487 1486 1486
1383 1385 1387 1389 1392 1394 1396 1399 1402 1405 1408 1411 1413 1416 1418 1420 1422 1424 1426 1428 1430 1432 1434 1436 1437 1439 1440 1441 1443 1445 1446 1448 1450 1451 1453 1454 1456 1458 1459 1461 1462 1462 1462 1463 1463 1463 1463 1463 1463 1463 1464 1464 1464 1465 1465 1465 1466 1466 1466 1466 1467 1468 1469 1469 1470 1471 1472 1473 1474 1475 1476 1477 1478 1479 1480 1481 1482 1482 1483 1484 1484 1484 1484 1484 1483
1384 1386 1388 1390 1393 1395 1397 1399 1402 1405 1408 1411 1413 1415 1418 1420 1422 1424 1426 1428 1430 1431 1433 1434 1436 1437 1439 1440 1442 1443 1445 1446 1447 1449 1450 1452 1454 1455 1457 1458 1459 1459 1460 1460 1460 1459 1459 1459 1460 1460 1461 1461 1462 1462 1463 1463 1464 1464 1464 1465 1465 1466 1467 1467 1468 1469 1470 1471 1472 1472 1473 1474 1475 1476 1477 1479 1480 1480 1481 1482 1482 1482 1481 1481 1480
1386 1388 1390 1392 1394 1396 1398 1401 1403 1406 1408 1411 1413 1416 1418 1419 1421 1423 1425 1427 1428 1430 1432 1434 1435 1436 1438 1439 1441 1442 1443 1444 1446 1447 1449 1451 1452 1454 1455 1456 1457 1457 1457 1457 1457 1457 1456 1457 1457 1457 1458 1458 1459 1460 1461 1461 1462 1462 1462 1463 1463 1464 1465 1466 1467 1467 1468 1469 1470 1470 1471 1472 1473 1474 1475 1476 1477 1478 1478 1479 1479 1479 1478 1478 1478
1388 1389 1391 1393 1395 1398 1400 1402 1405 1407 1409 1412 1414 1416 1418 1420 1421 1422 1424 1426 1427 1429 1431 1432 1434 1435 1437 1438 1439 1441 1442 1443 1445 1446 1448 1450 1451 1453 1454 1454 1455 1455 1455 1454 1454 1454 1454 1454 1454 1454 1455 1456 1456 1457 1458 1459 1459 1460 1460 1461 1461 1462 1463 1464 1465 1465 1466 1467 1468 1469 1469 1470 1471 1473 1474 1475 1475 1475 1476 1476 1476 1476 1476 1475 1475
1390 1392 1394 1395 1397 1399 1402 1404 1406 1409 1411 1413 1415 1416 1418 1420 1421 1422 1424 1425 1427 1429 1430 1431 1433 1434 1435 1437 1438 1439 1440 1442 1444 1445 1447 1449 1450 1451 1452 1453 1453 1453 1453 1452 1452 1452 1452 1452 1452 1452 1453 1454 1454 1455 1456 1456 1457 1458 1458 1459 1460 1460 1461 1462 1463 1463 1464 1466 1466 1467 1468 1469 1470 1471 1472 1472 1473 1473 1473 1473 1473 1473 1473 1473 1473
1392 1394 1396 1397 1399 1401 1403 1405 1408 1410 1411 1413 1415 1416 1418 1420 1421 1423 1424 1426 1427 1429 1430 1431 1432 1433 1434 1436 1437 1438 1439 1441 1443 1444 1446 1448 1449 1450 1451 1451 1451 1451 1451 1451 1450 1450 1450 1450 1450 1451 1451 1452 1452 1453 1454 1454 1455 1455 1456 1456 1457 1458 1459 1460 1461 1461 1463 1464 1465 1466 1466 1467 1468 1469 1470 1470 1470 1470 1471 1471 1471 1471 1471 1471 1470
1394 1395 1397 1399 1401 1403 1405 1406 1408 1410 1412 1414 1415 1417 1419 1420 1422 1423 1424 1426 1427 1428 1429 1430 1432 1433 1434 1435 1436 1437 1439 1440 1442 1444 1445 1447 1448 1449 1449 1449 1449 1449 1449 1449 1449 1449 1449 1449 1449 1449 1450 1450 1451 1451 1452 1452 1453 1453 1454 1454 1455 1456 1457 1458 1459 1459 1461 1462 1463 1464 1465 1465 1466 1467 1467 1468 1468 1468 1468 1468 1468 1468 1468 1468 1467
1395 1397 1399 1401 1402 1404 1406 1408 1410 1412 1413 1415 1417 1418 1420 1421 1422 1423 1424 1425 1427 1428 1429 1430 1431 1432 1433 1434 1436 1437 1438 1440 1441 1443 1444 1446 1446 1447 1447 1447 1447 1448 1447 1447 1447 1447 1447 1447 1448 1448 1448 1449 1449 1450 1450 1451 1451 1452 1452 1453 1453 1454 1455 1456 1456 1458 1459 1460 1461 1462 1462 1463 1464 1464 1465 1465 1465 1465 1465 1465 1465 1465 1465 1465 1465
1397 1399 1401 1402 1404 1406 1408 1409 1411 1413 1415 1417 1418 1419 1420 1421 1422 1423 1424 1425 1426 1427 1428 1429 1430 1432 1433 1434 1435 1437 1438 1439 1440 1442 1443 1444 1444 1445 1445 1445 1445 1445 1445 1445 1445 1445 1445 1446 1446 1446 1447 1448 1448 1449 1449 1450 1450 1450 1451 1451 1452 1452 1452 1453 1454 1456 1457 1458 1458 1459 1460 1460 1461 1461 1462 1462 1462 1462 1462 1463 1463 1462 1462 1462 1462
1399 1401 1402 1404 1405 1407 1409 1411 1413 1414 1416 1417 1418 1419 1420 1421 1422 1423 1424 1425 1426 1427 1428 1429 1430 1431 1433 1434 1435 1437 1437 1438 1439 1440 1441 1442 1442 1443 1443 1443 1443 1443 1443 1443 1443 1443 1443 1444 1444 1445 1446 1446 1447 1448 1448 1449 1449 1449 1449 1450 1450 1450 1451 1452 1453 1454 1455 1455 1456 1457 1457 1458 1458 1459 1459 1459 1459 1459 1459 1460 1459 1459 1459 1459 1458